Regional Weather Roundup
Issued by NWS

Home | Current Version | Previous Version | Text Only | Print | Product List | Glossary Off
Versions: 1 2 3 4 5 6 7 8 9 10 11 12 13 14 15 16 17 18 19 20 21 22 23 24 25 26 27

000
ASUS45 KBOU 271307
RWRCO

WEATHER ROUNDUP FOR COLORADO
NATIONAL WEATHER SERVICE DENVER/BOULDER CO
700 AM MDT WED JUL 27 2016

NOTE: "FAIR" INDICATES FEW OR NO CLOUDS BELOW 12000 FEET WITH NO
SIGNIFICANT WEATHER AND/OR OBSTRUCTIONS TO VISIBILITY.

COZ001>005-013-030-031-271400-
...NORTHWEST COLORADO...

CITY           SKY/WX    TMP DP  RH WIND       PRES   REMARKS
CRAIG          FAIR      48  41  76 CALM      30.29R
HAYDEN         FAIR      54  37  54 SE13      30.31R
MEEKER         FAIR      50  41  71 NE3       30.31R
MOUNT WERNER   NOT AVBL
STEAMBOAT SPGS FAIR      47  38  73 CALM      30.34R
WALDEN         FAIR      41  32  70 CALM      30.44R
$$

COZ006>008-011-271400-
...WEST CENTRAL VALLEYS...

CITY           SKY/WX    TMP DP  RH WIND       PRES   REMARKS
GRAND JUNCTION FAIR      67  42  40 SE10      30.18R
MONTROSE       FAIR      58  43  57 S7        30.28R
EAGLE          FAIR      48  39  71 CALM      30.40R
RIFLE          FAIR      56  40  55 CALM      30.27R
DELTA          FAIR      64  41  43 E3        30.24R
NUCLA          FAIR      61  41  48 SE7       30.31R
$$

COZ017>023-064>068-271400-
...SOUTHWEST COLORADO...

CITY           SKY/WX    TMP DP  RH WIND       PRES   REMARKS
DURANGO        FAIR      54  47  77 CALM      30.33R
CORTEZ         FAIR      54  44  69 MISG      30.27R
PAGOSA SPRINGS FAIR      50  44  80 CALM      30.42R
TELLURIDE      FAIR      52  39  62 SE7       30.53R
WOLF CREEK PAS FAIR      52  32  46 N7        30.74R
$$

COZ009-010-012-014-032>034-037-058>063-271400-
...CENTRAL COLORADO...

CITY           SKY/WX    TMP DP  RH WIND       PRES   REMARKS
ASPEN          FAIR      48  39  71 S6        30.42R
BUENA VISTA    FAIR      51  35  55 W6        30.44R
COPPER MTN     FAIR      54  30  40 W9        30.72R
BERTHOUD PASS  FAIR      45  32  61 N12       30.74R
COTTONWOOD PAS FAIR      59  32  36 SW5       30.55R
GUNNISON       FAIR      45  37  76 CALM      30.48R
KREMMLING      FAIR      41  37  87 CALM      30.45R
LEADVILLE      FAIR      39  32  76 CALM      30.56R
MONARCH PASS   FAIR      48  32  53 MISG      30.80R
SALIDA         FAIR      55  38  54 N3        30.49R
SUNLIGHT       FAIR      57  32  38 MISG      30.65R
WILKERSON PASS FAIR      54  27  35 NW8       30.67S
$$

COZ069>075-271400-
...SAN LUIS VALLEY/SANGRE DE CRISTO MOUNTAINS...

CITY           SKY/WX    TMP DP  RH WIND       PRES   REMARKS
ALAMOSA        FAIR      49  44  83 W5        30.40R
LA VETA PASS   FAIR      54  41  62 CALM      30.56S
SAGUACHE       FAIR      52  41  66 NW20      30.42R
$$

COZ035-036-038>040-271400-
...NORTHERN COLORADO FRONT RANGE...

CITY           SKY/WX    TMP DP  RH WIND       PRES   REMARKS
DENVER INTL AP FAIR      64  48  56 W8        30.18S
DMNS CITY PARK   N/A     64  47  54 S5        30.19R
AURORA         MOSUNNY   62  55  77 SW8       30.21R
FRONT RANGE AP MOSUNNY   64  57  77 SW9       30.20
ERIE MUNI ARPT FAIR      58  49  72 S3        30.17S
BOULDER MUN AP FAIR      61  43  51 S3        30.18R
CENTENNIAL     FAIR      61  44  53 SW8       30.22S
BROOMFIELD     MOSUNNY   59  43  55 SW7       30.21R
LONGMONT       FAIR      60  45  55 CALM      30.19R HAZE
$$

COZ041-046-047-076>085-087-088-271400-
...PIKES PEAK/PALMER DIVIDE AND SOUTHERN FOOTHILLS...

CITY           SKY/WX    TMP DP  RH WIND       PRES   REMARKS
COLO. SPRINGS  PTSUNNY   64  58  80 N5        30.28S
A. F. ACADEMY  CLOUDY    60  56  87 NW1       30.29S
SCHRIEVER AFB  NOT AVBL
ELLICOTT       FAIR     N/A N/A N/A CALM      30.26R
FALCON         CLOUDY    60  59  97 W3        30.32R
FORT CARSON    PTSUNNY   62  58  88 NW3       30.25R
LIMON          FAIR      64  56  75 SW3       30.21
MONUMENT HILL  FAIR      55  54  94 SW8       30.32S
TRINIDAD       NOT AVBL
$$

COZ042>045-048>051-090-091-271400-
...NORTHEAST COLORADO...

CITY           SKY/WX    TMP DP  RH WIND       PRES   REMARKS
GREELEY ARPT   FAIR      59  52  77 N5        30.17R
AKRON          FAIR      63  57  81 E12       30.16F
BURLINGTON     FOG       64  61  90 E8        30.14F VSB 1/2
WRAY           FAIR      63  57  82 SE3       30.13F
STERLING       FAIR      64  61  88 SE7       30.13R
HOLYOKE        FAIR      63  59  88 W3        30.15S
FORT MORGAN    FAIR      64  58  79 E9        30.15S
$$

COZ086-089-092>099-271400-
...SOUTHEAST COLORADO...

CITY           SKY/WX    TMP DP  RH WIND       PRES   REMARKS
PUEBLO         FAIR      66  60  81 N7        30.18R
LA JUNTA       FAIR      71  59  65 N5        30.14R
LAMAR          FAIR      70  58  65 NE8       30.08R
SPRINGFIELD      N/A     69  59  70 S7        30.12S
$$




USA.gov is the U.S. government's official web portal to all federal, state and local government web resources and services.